| time (UTC) | temp F | wind direction | speed MPH | gust MPH | rain 1hr in | rain 24hr in | rain mn in | humidity % | barometer mb |
| 20260510130030 | 66 | 66 | 0.0 | 0.0 | 0.00 | 1.20 | 0.00 | 96 | 1016.7 |
| 20260510124538 | 65 | 65 | 0.0 | 0.0 | 0.00 | 1.30 | 0.00 | 96 | 1016.5 |
| 20260510123024 | 65 | 65 | 0.0 | 0.0 | 0.00 | 1.46 | 0.00 | 95 | 1016.4 |
| 20260510121519 | 65 | 76 | 0.0 | 0.0 | 0.00 | 2.05 | 0.00 | 95 | 1016.0 |
| 20260510114517 | 64 | 95 | 0.0 | 0.0 | 0.00 | 2.54 | 0.00 | 95 | 1015.7 |
| 20260510113020 | 64 | 36 | 0.0 | 0.0 | 0.00 | 2.56 | 0.00 | 95 | 1015.4 |
| 20260510111513 | 64 | 278 | 0.0 | 0.0 | 0.00 | 2.56 | 0.00 | 95 | 1014.8 |
| 20260510110011 | 64 | 80 | 0.0 | 0.0 | 0.00 | 2.56 | 0.00 | 95 | 1014.3 |
| 20260510104512 | 64 | 90 | 0.0 | 0.0 | 0.00 | 2.56 | 0.00 | 95 | 1014.1 |
| 20260510103032 | 65 | 328 | 0.0 | 0.0 | 0.00 | 2.56 | 0.00 | 95 | 1013.9 |
| 20260510101522 | 65 | 326 | 0.0 | 0.0 | 0.00 | 2.56 | 0.00 | 95 | 1013.7 |
| 20260510100024 | 65 | 78 | 0.0 | 0.0 | 0.00 | 2.56 | 0.00 | 95 | 1013.6 |
| 20260510094522 | 65 | 78 | 0.0 | 0.0 | 0.00 | 2.56 | 0.00 | 95 | 1013.5 |
| 20260510093016 | 65 | 70 | 0.0 | 0.0 | 0.00 | 2.56 | 0.00 | 95 | 1013.6 |
| 20260510091537 | 65 | 70 | 0.0 | 0.0 | 0.00 | 2.57 | 0.00 | 95 | 1013.7 |
| 20260510090014 | 65 | 9 | 0.0 | 0.0 | 0.00 | 2.57 | 0.00 | 95 | 1013.8 |
| 20260510084508 | 65 | 292 | 0.0 | 0.0 | 0.00 | 2.57 | 0.00 | 95 | 1013.8 |
| 20260510083028 | 65 | 305 | 0.0 | 0.0 | 0.00 | 2.59 | 0.00 | 95 | 1013.6 |
| 20260510081536 | 65 | 248 | 0.0 | 0.0 | 0.00 | 2.60 | 0.00 | 95 | 1013.5 |
| 20260510080024 | 66 | 217 | 0.0 | 0.0 | 0.00 | 2.61 | 0.00 | 95 | 1013.5 |
| 20260510074522 | 66 | 217 | 0.0 | 0.0 | 0.00 | 2.61 | 0.00 | 95 | 1013.4 |
| 20260510073024 | 66 | 217 | 0.0 | 0.0 | 0.00 | 2.62 | 0.00 | 95 | 1013.2 |
| 20260510071516 | 66 | 217 | 0.0 | 0.0 | 0.00 | 2.62 | 0.00 | 95 | 1012.8 |
| 20260510070021 | 66 | 216 | 0.0 | 0.0 | 0.00 | 2.62 | 0.00 | 95 | 1012.9 |
| 20260510064536 | 66 | 216 | 0.0 | 0.0 | 0.00 | 2.62 | 0.00 | 95 | 1013.2 |
| 20260510063038 | 66 | 216 | 0.0 | 0.0 | 0.00 | 2.62 | 0.00 | 95 | 1013.2 |
| 20260510061542 | 66 | 216 | 0.0 | 0.0 | 0.00 | 2.62 | 0.00 | 95 | 1013.3 |
| 20260510060035 | 66 | 221 | 0.0 | 0.0 | 0.00 | 2.62 | 0.00 | 95 | 1013.4 |
| 20260510054510 | 66 | 221 | 0.0 | 0.0 | 0.00 | 2.65 | 0.00 | 95 | 1013.4 |
| 20260510053009 | 66 | 221 | 0.0 | 0.0 | 0.00 | 2.67 | 0.00 | 95 | 1013.3 |
| 20260510051506 | 66 | 221 | 0.0 | 0.0 | 0.00 | 2.71 | 0.00 | 95 | 1013.6 |
| 20260510050006 | 66 | 229 | 0.0 | 0.0 | 0.00 | 2.73 | 0.00 | 95 | 1013.5 |
| 20260510044509 | 66 | 229 | 0.0 | 0.0 | 0.00 | 2.74 | 2.73 | 95 | 1013.4 |
| 20260510043008 | 66 | 229 | 0.0 | 0.0 | 0.00 | 2.74 | 2.73 | 95 | 1013.2 |
| 20260510041506 | 66 | 287 | 0.0 | 0.0 | 0.00 | 2.74 | 2.73 | 95 | 1013.4 |
| 20260510040010 | 66 | 287 | 0.0 | 0.0 | 0.00 | 2.74 | 2.73 | 95 | 1013.1 |
| 20260510034510 | 66 | 108 | 0.0 | 0.0 | 0.00 | 2.74 | 2.73 | 95 | 1013.6 |
| 20260510033013 | 66 | 73 | 0.0 | 0.0 | 0.00 | 2.74 | 2.73 | 95 | 1013.9 |
| 20260510031510 | 66 | 73 | 0.0 | 0.0 | 0.00 | 2.74 | 2.73 | 95 | 1013.8 |
| 20260510030012 | 66 | 76 | 0.0 | 0.0 | 0.00 | 2.74 | 2.73 | 95 | 1014.1 |
| 20260510024510 | 66 | 76 | 0.0 | 0.0 | 0.00 | 2.74 | 2.73 | 95 | 1013.8 |
| 20260510023011 | 66 | 178 | 0.0 | 0.0 | 0.00 | 2.74 | 2.73 | 95 | 1013.4 |
| 20260510021513 | 67 | 158 | 0.0 | 0.0 | 0.00 | 2.74 | 2.73 | 95 | 1013.2 |
| 20260510020012 | 67 | 173 | 0.0 | 0.0 | 0.01 | 2.74 | 2.73 | 95 | 1013.5 |
| 20260510014516 | 67 | 108 | 0.0 | 0.0 | 0.02 | 2.74 | 2.73 | 95 | 1013.0 |
| 20260510013019 | 67 | 75 | 0.0 | 1.0 | 0.03 | 2.74 | 2.73 | 95 | 1013.1 |
| 20260510011519 | 67 | 342 | 0.0 | 2.0 | 0.03 | 2.74 | 2.73 | 95 | 1013.1 |
| 20260510010013 | 67 | 59 | 0.0 | 1.0 | 0.03 | 2.74 | 2.72 | 95 | 1011.7 |
| 20260510004513 | 67 | 167 | 0.0 | 0.0 | 0.02 | 2.73 | 2.71 | 95 | 1012.2 |
| 20260510003014 | 66 | 250 | 1.0 | 4.0 | 0.02 | 2.72 | 2.70 | 95 | 1012.3 |
| 20260510001513 | 67 | 73 | 0.0 | 0.0 | 0.04 | 2.73 | 2.70 | 95 | 1011.9 |
| 20260510000012 | 66 | 72 | 0.0 | 0.0 | 0.04 | 2.73 | 2.69 | 95 | 1012.8 |
| 20260509234528 | 67 | 218 | 0.0 | 0.0 | 0.05 | 2.73 | 2.69 | 95 | 1012.8 |
| 20260509233030 | 66 | 108 | 0.0 | 0.0 | 0.06 | 2.73 | 2.68 | 95 | 1012.4 |
| 20260509231516 | 66 | 117 | 0.0 | 0.0 | 0.07 | 2.72 | 2.66 | 95 | 1012.3 |
| 20260509230016 | 66 | 128 | 0.0 | 0.0 | 0.08 | 2.71 | 2.65 | 95 | 1012.4 |
| 20260509224518 | 66 | 79 | 0.0 | 0.0 | 0.08 | 2.74 | 2.64 | 95 | 1012.3 |
| 20260509223018 | 66 | 80 | 0.0 | 0.0 | 0.06 | 2.79 | 2.62 | 95 | 1012.5 |
| 20260509221513 | 66 | 81 | 0.0 | 0.0 | 0.05 | 2.80 | 2.59 | 95 | 1012.2 |
| 20260509220020 | 66 | 86 | 0.0 | 0.0 | 0.03 | 2.81 | 2.57 | 95 | 1012.2 |
| 20260509214516 | 66 | 82 | 0.0 | 2.0 | 0.04 | 2.82 | 2.56 | 95 | 1011.6 |
| 20260509213016 | 66 | 240 | 0.0 | 0.0 | 0.06 | 2.84 | 2.56 | 95 | 1011.7 |
| 20260509211520 | 66 | 99 | 0.0 | 0.0 | 0.06 | 2.87 | 2.54 | 95 | 1011.4 |
| 20260509210024 | 66 | 82 | 0.0 | 0.0 | 0.12 | 2.95 | 2.54 | 95 | 1011.0 |
| 20260509204520 | 66 | 101 | 0.0 | 0.0 | 0.14 | 2.99 | 2.52 | 95 | 1011.6 |
| 20260509203024 | 66 | 335 | 0.0 | 0.0 | 0.18 | 3.02 | 2.50 | 95 | 1011.3 |
| 20260509201518 | 65 | 97 | 0.0 | 0.0 | 0.21 | 3.04 | 2.48 | 95 | 1011.7 |
| 20260509200016 | 65 | 250 | 0.0 | 0.0 | 0.20 | 3.09 | 2.42 | 95 | 1013.1 |
| 20260509194510 | 65 | 88 | 0.0 | 0.0 | 0.19 | 3.16 | 2.38 | 95 | 1012.8 |
| 20260509193007 | 66 | 264 | 0.0 | 0.0 | 0.13 | 3.27 | 2.32 | 95 | 1012.5 |
| 20260509191505 | 65 | 229 | 0.0 | 0.0 | 0.08 | 3.54 | 2.27 | 95 | 1013.1 |
| 20260509190007 | 65 | 136 | 0.0 | 0.0 | 0.03 | 3.81 | 2.22 | 95 | 1013.2 |
| 20260509184532 | 65 | 78 | 0.0 | 0.0 | 0.01 | 4.02 | 2.19 | 95 | 1013.0 |
| 20260509183030 | 65 | 140 | 0.0 | 0.0 | 0.01 | 4.37 | 2.19 | 95 | 1012.8 |
| 20260509181520 | 65 | 58 | 0.0 | 0.0 | 0.01 | 4.42 | 2.19 | 95 | 1012.7 |
| 20260509180019 | 65 | 99 | 0.0 | 0.0 | 0.01 | 4.51 | 2.19 | 95 | 1012.7 |
| 20260509174512 | 65 | 340 | 0.0 | 0.0 | 0.01 | 4.85 | 2.18 | 95 | 1012.5 |
| 20260509173016 | 65 | 87 | 0.0 | 1.0 | 0.01 | 5.04 | 2.18 | 95 | 1012.8 |
| 20260509171519 | 65 | 89 | 0.0 | 1.0 | 0.01 | 5.04 | 2.18 | 95 | 1012.8 |
| 20260509170008 | 65 | 67 | 0.0 | 4.0 | 0.06 | 5.04 | 2.18 | 95 | 1012.9 |
| 20260509164523 | 64 | 82 | 0.0 | 3.0 | 0.11 | 5.03 | 2.17 | 95 | 1012.4 |
| 20260509163048 | 64 | 104 | 0.0 | 3.0 | 0.17 | 5.03 | 2.17 | 95 | 1012.8 |
| 20260509161527 | 64 | 254 | 1.0 | 5.0 | 0.18 | 5.03 | 2.17 | 94 | 1012.3 |
| 20260509160018 | 64 | 105 | 0.0 | 2.0 | 0.15 | 4.98 | 2.11 | 95 | 1013.8 |
| 20260509154516 | 64 | 146 | 0.0 | 3.0 | 0.13 | 4.92 | 2.06 | 94 | 1013.7 |
| 20260509153020 | 64 | 61 | 1.0 | 3.0 | 0.11 | 4.86 | 2.00 | 95 | 1013.2 |
| 20260509151511 | 64 | 126 | 1.0 | 3.0 | 0.17 | 4.85 | 1.99 | 94 | 1013.0 |
| 20260509150008 | 64 | 82 | 0.0 | 1.0 | 0.22 | 4.83 | 1.97 | 94 | 1013.0 |
| 20260509144526 | 64 | 71 | 1.0 | 3.0 | 0.27 | 4.79 | 1.93 | 94 | 1013.0 |
| 20260509143033 | 64 | 69 | 0.0 | 2.0 | 0.27 | 4.75 | 1.89 | 94 | 1013.2 |
| 20260509141528 | 64 | 84 | 0.0 | 3.0 | 0.24 | 4.69 | 1.82 | 94 | 1013.4 |
| 20260509140021 | 64 | 63 | 1.0 | 4.0 | 0.22 | 4.62 | 1.75 | 94 | 1013.3 |
| 20260509134519 | 65 | 58 | 2.0 | 6.0 | 0.23 | 4.53 | 1.66 | 94 | 1013.3 |
| 20260509133018 | 65 | 87 | 0.0 | 1.0 | 0.35 | 4.48 | 1.62 | 94 | 1013.7 |
| 20260509131514 | 65 | 98 | 1.0 | 3.0 | 0.92 | 4.44 | 1.58 | 94 | 1013.9 |